Find Starlink 33669

NORAD ID: 63283 Int'l Des: 2025-053 Owner: SPXS Country: US Constellation: starlink operational
LEOCIRCULAR

当前视图

正在加载3D地球...

About Starlink 33669

Starlink 33669 (NORAD 63283) is a starlink constellation satellite (v2 mini) launched Mar 15, 2025 by SPXS of US. It operates in LEO, CIRCULAR orbit with a mass of 575.00 kg.

即将过境

Passes for default location (London). Set your location on the main map for personalized predictions.

高度历史

Loading altitude history...

两行轨道根数

1 63283U 25053U 26235.78794017 .00014238 00000-0 52556-3 0 9992
2 63283 43.0057 17.6886 0002144 281.5081 78.5530 15.27603167 81752
Epoch: Aug 23, 2026 • Age: 14 hours

当前状态

高度 491.0 km
远地点 / 近地点 N/A
速度 7.62 km/s
星下点 -33.66°S, 135.43°W
发射日期 Mar 15, 2025
运行时间 1.4 years
类型 internet

技术详情

分类 Payload
质量 575.00 kg
干质量 530.00 kg
总质量 575.00 kg
长度 0.30 m
直径 4.10 m
跨度 29.00 m
形状 Box + pan
制造商 SPXS
平台类型 Starlink V2MO
阶段状态 In Orbit
所有者/国家 SPXS/US

Most Searched